Location: Oroua River
(40.4333°S, 175.4333°E)
Time: 13:33:25
(UTC+00:00)

Meteor 2-15 Rocket - Pass Details

Date: 03 February 2023
Orbit: 940 x 955 km, 82.5° (Epoch: 23 March)

Event Time Altitude Azimuth Distance (km) Brightness Sun altitude
Exits shadow 16:27:17 - 348° (NNW) 3,371 6.9 -11.2°
Reaches altitude 10° 16:29:07 10° 346° (NNW) 2,684 6.4 -10.9°
Maximum altitude 16:35:15 73° 261° (W) 1,008 4.5 -9.9°
Drops below altitude 10° 16:41:29 10° 176° (S) 2,716 7.3 -8.9°
Sets 16:44:01 0° 174° (S) 3,667 8.1 -8.5°
